Location: Arnon, Fen�tre d�
(46.3909°N, 7.1987°E)
Time: 02:08:29
(UTC+00:00)

Daily predictions for brighter satellites

Satellite Brightness Start Highest point End
(mag) Time Altitude Azimuth Time Altitude Azimuth Time Altitude Azimuth
Cosmos 2344 4.2 02:53:31 47° E 02:53:31 47° E 02:59:38 10° NE
USA 215 3.8 03:19:45 10° E 03:25:43 49° NNE 03:25:43 49° NNE
Cosmos 2369 Rocket 4.3 03:33:15 10° SSE 03:37:36 24° ESE 03:41:57 10° NE
NOSS 3-3 (A) 4.4 03:44:28 72° NNW 03:45:24 85° NE 03:53:55 10° SE
NOSS 3-3 (C) 4.4 03:44:32 72° NNW 03:45:30 85° NE 03:54:00 10° SE
Cosmos 1867 4.3 03:50:15 47° SE 03:50:15 47° SE 03:54:04 10° SE
Tsikada Rocket 4.4 03:46:14 10° S 03:52:17 60° E 03:58:28 10° NNE
Gblst 52 Del rocket 4.4 03:54:35 79° E 03:54:35 79° E 04:00:49 10° ENE
Cosmos 1943 Rocket 2.1 04:06:38 86° E 04:06:38 86° E 04:12:15 10° NNE
CZ-2C R/B 3.5 04:03:32 10° SE 04:08:47 48° ENE 04:13:24 13° N
SL-19 R/B 4.4 04:05:27 10° SSE 04:11:00 72° ENE 04:13:20 36° N
Cosmos 1241 Rocket 4.2 04:10:32 76° NW 04:11:02 85° WSW 04:17:15 10° SSE
SL-8 R/B 3.9 04:16:23 64° NE 04:16:23 64° NE 04:20:40 10° E
CENTAUR R/B 2.3 04:16:08 67° WSW 04:16:58 78° NW 04:24:08 10° NE
Cosmos 2297 3.6 04:21:06 72° W 04:21:29 75° WNW 04:27:15 10° NNE
NOSS 3-2 (A) 3.4 04:27:50 55° NW 04:28:02 56° NW 04:34:31 10° NE
Cosmos 2278 Rocket 4.1 04:33:50 16° N 04:33:50 16° N 04:35:27 10° N
NOSS 3-2 (C) 3.2 04:33:35 44° SW 04:35:30 79° NW 04:42:01 10° NE
SKYMED 2 3.7 04:31:12 10° SSE 04:35:32 75° ENE 04:37:12 37° N
Envisat 3.2 04:30:43 10° NNE 04:35:48 72° ESE 04:40:53 10° S
Cosmos 2098 Rocket 3.3 04:37:48 10° S 04:41:34 65° E 04:46:23 10° NNE
Meteor 2-3 Rocket 3.7 04:36:39 10° SSW 04:42:13 61° WNW 04:47:55 10° N
Landsat 5 3.8 04:40:41 10° SSE 04:45:10 73° ENE 04:48:26 18° N
Cosmos 968 Rocket 3.3 04:42:38 26° SW 04:45:36 70° WNW 04:50:44 10° NNE
Meteor 2-13 Rocket 4.3 04:40:33 10° S 04:46:39 82° W 04:52:47 10° N
CZ-4B R/B 4.2 04:43:51 10° NNE 04:48:18 76° ESE 04:52:47 10° S
Genesis I 3.7 04:49:24 47° SW 04:49:24 47° SW 04:52:53 10° SSE
Cosmos 921 Rocket 2.9 04:50:35 55° WNW 04:51:16 65° WSW 04:55:40 10° S
Okean 3 Rocket 4.0 04:48:44 10° S 04:53:12 64° E 04:57:43 10° NNE
DNEPR-1 R/B 4.0 04:53:15 32° NNW 04:55:31 77° NE 05:01:09 10° SE
H-2A R/B 3.8 04:52:13 10° SE 04:55:56 30° ENE 04:59:46 10° N
Meteor 1-26 Rocket 4.5 04:53:51 23° NNW 04:57:15 49° W 05:02:47 10° SSW
Cosmos 1812 2.5 04:56:57 53° NW 04:57:40 69° W 05:01:28 10° S
CBERS 1 LM4 rocket 4.3 04:54:10 10° NNE 04:59:02 87° WNW 05:04:02 10° SSW
ADEOS 4.1 04:54:09 10° NNE 04:59:20 60° ESE 05:04:29 10° S
USA 238 DEB 3.7 05:00:10 27° WSW 05:03:44 54° NW 05:10:31 10° NE
USA 238 3.7 05:00:14 26° WSW 05:03:50 54° NW 05:10:37 10° NE
Cosmos 2142 Rocket 4.4 04:58:01 10° N 05:04:23 81° W 05:10:45 10° S
Cosmos 1151 Rocket 2.9 05:01:35 20° NNW 05:04:32 69° W 05:08:52 10° S
Cosmos 1766 Rocket 3.4 05:02:03 10° S 05:06:24 84° W 05:10:45 10° N
Cosmos 2344 4.0 05:03:34 28° W 05:06:54 42° NNW 05:14:35 10° NE
CZ-2C R/B 4.0 05:02:36 10° NNE 05:07:18 47° E 05:12:09 10° S
Cosmos 2263 4.2 05:01:37 10° SSW 05:07:19 86° ESE 05:13:06 10° NNE
USA 215 3.2 05:02:16 10° SE 05:08:48 74° SW 05:13:03 24° WNW
Kosmos-917 4.5 05:12:30 33° NW 05:12:48 34° NNW 05:17:31 10° NE
Meteor 1-31 Rocket 2.8 05:10:23 10° N 05:14:13 57° WNW 05:18:02 10° SSW
Cosmos 1782 4.4 05:15:55 19° SW 05:15:55 19° SW 05:17:33 10° SSW
Cosmos 2279 Rocket 3.9 05:08:58 10° NNW 05:15:08 71° W 05:21:17 10° S
Cosmos 2297 Rocket 4.5 05:11:55 10° N 05:15:37 17° NE 05:19:18 10° E
Cosmos 1328 Rocket 3.4 05:12:49 10° NNW 05:17:13 72° W 05:21:32 10° S
IRAS Rocket 4.3 05:11:47 10° SSE 05:17:18 83° ENE 05:22:50 10° NNW
BREEZE-M DEB (TANK) 4.3 05:04:19 10° SW 05:17:39 53° SSE 05:21:24 10° ENE
SJ-12 4.4 05:15:44 10° N 05:19:35 38° WNW 05:23:25 10° SW
Cosmos 2369 Rocket 2.2 05:15:42 10° SW 05:21:11 57° WNW 05:26:44 10° NNE
FALCON 9 DEB 3.7 05:21:07 35° NW 05:21:46 40° NNW 05:25:00 10° NE
Cosmos 1862 3.3 05:18:51 10° SSW 05:22:43 55° WNW 05:26:37 10° N
COSMO-SKYMED 1 3.2 05:19:44 10° SSW 05:23:42 35° W 05:25:48 22° NW
Nadezhda 4 Rocket 4.4 05:19:43 10° S 05:25:48 67° E 05:31:59 10° NNE
H-2A R/B 3.5 05:24:19 10° N 05:27:32 28° WNW 05:30:46 10° SW
H-2A R/B 4.4 05:30:09 10° NE 05:34:12 25° E 05:38:13 10° SSE
Meteor 2-15 Rocket 4.5 05:28:45 10° N 05:34:53 87° E 05:40:57 10° S
CZ-4B R/B 2.6 05:33:25 10° NNE 05:37:01 84° ESE 05:40:35 10° SSW
CZ-4B R/B 2.8 05:36:32 10° SE 05:39:38 37° ENE 05:42:43 10° N
Cosmos 1408 Rocket 3.4 05:37:29 10° SSW 05:41:47 75° W 05:46:06 10° N
Cosmos 783 Rocket 4.4 05:38:16 10° NNW 05:43:29 76° WSW 05:48:39 10° SSE
CZ-4C R/B 3.8 05:42:00 10° SSW 05:44:42 26° W 05:46:01 19° WNW
Cosmos 1656 Rocket 3.7 05:39:38 10° SW 05:44:53 50° WNW 05:50:12 10° NNE
DMSP B5D2-2 4.1 05:39:52 10° S 05:45:01 64° WSW 05:50:13 10° NNW
Cosmos 1503 Rocket 4.0 05:40:01 10° SW 05:45:14 61° WNW 05:50:32 10° NNE
USA 32 4.5 05:41:43 10° N 05:46:57 65° E 05:52:09 10° SSE
Cosmos 1743 Rocket 3.9 05:44:45 10° S 05:49:07 70° E 05:53:28 10° NNE
CZ-2C R/B 3.6 05:44:41 10° SSW 05:49:16 27° W 05:53:47 10° NW
Cosmos 1943 Rocket 3.5 05:48:15 14° W 05:51:04 20° NW 05:55:12 10° N
Cosmos 2227 Rocket 4.2 05:46:52 10° N 05:51:09 21° NE 05:55:25 10° E
FAST Rocket 4.2 05:48:45 10° S 05:51:20 71° E 05:54:20 10° NNE
Cosmos 1777 Rocket 4.1 05:51:42 10° SSW 05:56:55 82° ESE 06:02:11 10° NNE
Cosmos 1515 Rocket 3.8 05:53:16 10° NNW 05:57:29 49° W 06:01:39 10° SSW
SL-8 R/B 4.0 05:54:22 14° WNW 05:58:26 60° SSW 06:03:08 10° SE
FALCON 9 DEB 4.3 05:56:51 15° NW 05:58:26 22° N 06:00:47 10° NE
Meteor 1-27 Rocket 3.7 05:54:58 10° NNW 06:00:34 67° W 06:06:14 10° S
Cosmos 1602 4.4 05:57:49 10° S 06:01:33 57° E 06:05:19 10° NNE
NOAA 6 4.2 05:57:26 10° NNE 06:02:35 79° ESE 06:07:41 10° S
COSMOS 2487 3.1 06:01:24 10° NNW 06:04:43 53° ENE 06:07:59 10° SE
Cosmos 773 Rocket 4.1 06:00:00 10° NNW 06:05:06 55° WSW 06:10:08 10° S
FALCON 9 DEB 4.4 06:03:16 12° NW 06:05:09 21° N 06:07:24 10° NE
SJ 16-02 1.3 06:02:05 10° SSW 06:06:28 87° WNW 06:10:53 10° NNE
FALCON 9 DEB 4.4 06:05:15 12° NW 06:07:14 21° N 06:09:30 10° NE
CENTAUR R/B 3.7 06:03:24 10° W 06:08:54 28° NNW 06:15:16 10° NE
Alouette 2 Rocket 3.1 06:07:06 10° NNW 06:11:00 71° W 06:14:32 10° S
NOAA 12 4.2 06:08:31 10° N 06:13:41 56° WNW 06:18:47 10° SSW
Envisat 4.3 06:10:56 10° NNW 06:14:16 18° WNW 06:17:36 10° W
Cosmos 1340 Rocket 2.8 06:10:43 10° SSW 06:14:37 62° WNW 06:18:36 10° N
Cosmos 1500 Rocket 3.7 06:13:40 10° SSW 06:18:02 55° WNW 06:22:27 10° N
SL-27 R/B 3.2 06:14:58 10° NW 06:18:17 35° WSW 06:21:32 10° S
Cosmos 1939 Rocket 3.1 06:16:29 10° N 06:20:15 44° WNW 06:23:57 10° SW
FALCON 9 DEB 4.4 06:21:55 10° NW 06:24:13 21° N 06:26:32 10° NE
